H1 CPF 2 NER 2024 8 22 9 235 01 glonass145 H2 2213001 9145 54031 2024 8 22 0 0 0 2024 8 25 23 45 0 900 1 1 0 0 0 1 H9 10 0 60544 0.00000 0 21097520.791 -3960427.763 -13796667.068 10 0 60544 900.00000 0 22638657.072 -3945758.379 -11097252.648 10 0 60544 1800.00000 0 23831464.573 -4051095.959 -8182544.445 10 0 60544 2700.00000 0 24645436.772 -4227066.496 -5109110.811 10 0 60544 3600.00000 0 25062562.136 -4420038.577 -1936581.798 10 0 60544 4500.00000 0 25077988.207 -4574620.433 1273505.269 10 0 60544 5400.00000 0 24700153.847 -4636235.401 4458896.345 10 0 60544 6300.00000 0 23950384.691 -4553666.800 7557824.369 10 0 60544 7200.00000 0 22861969.288 -4281464.625 10510202.794 10 0 60544 8100.00000 0 21478754.825 -3782112.221 13258786.068 10 0 60544 9000.00000 0 19853321.403 -3027861.249 15750274.783 10 0 60544 9900.00000 0 18044811.195 -2002157.140 17936344.447 10 0 60544 10800.00000 0 16116502.981 -700594.297 19774578.408 10 0 60544 11700.00000 0 14133233.021 868640.093 21229287.372 10 0 60544 12600.00000 0 12158769.384 2684853.527 22272200.124 10 0 60544 13500.00000 0 10253248.645 4715464.861 22883012.476 10 0 60544 14400.00000 0 8470781.144 6917126.140 23049784.091 10 0 60544 15300.00000 0 6857324.006 9237304.642 22769175.483 10 0 60544 16200.00000 0 5448910.035 11616260.980 22046520.372 10 0 60544 17100.00000 0 4270305.860 13989342.627 20895731.445 10 0 60544 18000.00000 0 3334155.050 16289498.710 19339040.580 10 0 60544 18900.00000 0 2640641.783 18449912.480 17406577.601 10 0 60544 19800.00000 0 2177688.970 20406642.433 15135794.685 10 0 60544 20700.00000 0 1921682.430 22101162.117 12570746.595 10 0 60544 21600.00000 0 1838690.475 23482692.471 9761239.877 10 0 60544 22500.00000 0 1886127.267 24510228.662 6761866.945 10 0 60544 23400.00000 0 2014789.296 25154175.863 3630943.627 10 0 60544 24300.00000 0 2171178.236 25397524.612 429370.983 10 0 60544 25200.00000 0 2300010.965 25236515.728 -2780555.978 10 0 60544 26100.00000 0 2346809.327 24680766.274 -5936368.647 10 0 60544 27000.00000 0 2260458.598 23752851.053 -8976649.459 10 0 60544 27900.00000 0 1995624.874 22487357.230 -11842235.922 10 0 60544 28800.00000 0 1514927.591 20929452.227 -14477379.506 10 0 60544 29700.00000 0 790773.930 19133025.640 -16830835.985 10 0 60544 30600.00000 0 -193223.618 17158483.948 -18856865.441 10 0 60544 31500.00000 0 -1441307.358 15070291.331 -20516122.144 10 0 60544 32400.00000 0 -2945152.579 12934360.305 -21776417.129 10 0 60544 33300.00000 0 -4683982.214 10815401.822 -22613338.993 10 0 60544 34200.00000 0 -6625213.622 8774345.793 -23010721.455 10 0 60544 35100.00000 0 -8725610.820 6865939.472 -22960949.393 10 0 60544 36000.00000 0 -10932894.299 5136623.302 -22465098.193 10 0 60544 36900.00000 0 -13187741.504 3622771.794 -21532904.503 10 0 60544 37800.00000 0 -15426094.861 2349371.472 -20182569.570 10 0 60544 38700.00000 0 -17581681.531 1329189.422 -18440399.474 10 0 60544 39600.00000 0 -19588640.249 562465.436 -16340289.501 10 0 60544 40500.00000 0 -21384146.274 37138.843 -13923062.807 10 0 60544 41400.00000 0 -22910925.455 -270401.228 -11235676.129 10 0 60544 42300.00000 0 -24119553.099 -394075.175 -8330307.895 10 0 60544 43200.00000 0 -24970442.185 -376435.313 -5263346.280 10 0 60544 44100.00000 0 -25435438.337 -266623.005 -2094296.652 10 0 60544 45000.00000 0 -25498955.358 -118047.432 1115370.456 10 0 60544 45900.00000 0 -25158604.197 14115.493 4303408.622 10 0 60544 46800.00000 0 -24425289.402 75498.124 7407999.096 10 0 60544 47700.00000 0 -23322769.279 15081.011 10368945.369 10 0 60544 48600.00000 0 -21886698.299 -212409.652 13128835.779 10 0 60544 49500.00000 0 -20163191.796 -644348.428 15634151.898 10 0 60544 50400.00000 0 -18206972.724 -1308392.021 17836301.538 10 0 60544 51300.00000 0 -16079177.594 -2221072.732 19692556.837 10 0 60544 52200.00000 0 -13844912.582 -3386863.895 21166879.764 10 0 60544 53100.00000 0 -11570661.124 -4797757.554 22230619.520 10 0 60544 54000.00000 0 -9321650.205 -6433373.402 22863068.760 10 0 60544 54900.00000 0 -7159284.198 -8261595.983 23051868.119 10 0 60544 55800.00000 0 -5138752.288 -10239715.217 22793251.230 10 0 60544 56700.00000 0 -3306908.310 -12316024.409 22092125.256 10 0 60544 57600.00000 0 -1700510.633 -14431810.802 20961984.856 10 0 60544 58500.00000 0 -344894.943 -16523657.127 19424660.468 10 0 60544 59400.00000 0 746865.121 -18525959.394 17509904.873 10 0 60544 60300.00000 0 1574274.708 -20373556.667 15254824.968 10 0 60544 61200.00000 0 2149198.878 -22004363.368 12703168.825 10 0 60544 62100.00000 0 2495117.587 -23361893.990 9904481.000 10 0 60544 63000.00000 0 2645886.218 -24397574.129 6913141.900 10 0 60544 63900.00000 0 2644054.401 -25072740.175 3787309.651 10 0 60544 64800.00000 0 2538814.781 -25360242.859 587785.171 10 0 60544 65700.00000 0 2383669.347 -25245586.336 -2623177.031 10 0 60544 66600.00000 0 2233913.193 -24727554.008 -5783088.324 10 0 60544 67500.00000 0 2144043.565 -23818294.154 -8830450.978 10 0 60544 68400.00000 0 2165205.299 -22542861.329 -11705963.812 10 0 60544 69300.00000 0 2342782.238 -20938232.783 -14353683.889 10 0 60544 70200.00000 0 2714237.909 -19051841.433 -16722120.808 10 0 60544 71100.00000 0 3307297.945 -16939687.400 -18765241.658 10 0 60544 72000.00000 0 4138552.009 -14664107.874 -20443366.801 10 0 60544 72900.00000 0 5212534.963 -12291299.251 -21723939.093 10 0 60544 73800.00000 0 6521326.554 -9888695.536 -22582151.987 10 0 60544 74700.00000 0 8044686.873 -7522312.735 -23001424.876 10 0 60544 75600.00000 0 9750722.159 -5254169.843 -22973717.220 10 0 60544 76500.00000 0 11597053.326 -3139893.385 -22499676.172 10 0 60544 77400.00000 0 13532438.468 -1226604.449 -21588615.584 10 0 60544 78300.00000 0 15498781.752 448825.065 -20258327.465 10 0 60544 79200.00000 0 17433445.010 1861075.859 -18534730.032 10 0 60544 80100.00000 0 19271765.793 2997191.698 -16451359.461 10 0 60544 81000.00000 0 20949677.029 3856864.949 -14048715.371 10 0 60544 81900.00000 0 22406319.275 4452187.149 -11373472.690 10 0 60544 82800.00000 0 23586536.764 4806876.805 -8477575.150 10 0 60544 83700.00000 0 24443153.213 4955018.412 -5417227.814 10 0 60544 84600.00000 0 24938932.641 4939367.072 -2251808.087 10 0 60544 85500.00000 0 25048143.309 4809291.097 957283.824 10 0 60545 0.00000 0 24757659.568 4618440.172 4147812.491 10 0 60545 900.00000 0 24067555.482 4422237.848 7257911.705 10 0 60545 1800.00000 0 22991165.790 4275304.834 10227278.211 10 0 60545 2700.00000 0 21554611.148 4228921.674 12998337.506 10 0 60545 3600.00000 0 19795807.523 4328638.271 15517355.088 10 0 60545 4500.00000 0 17763000.685 4612131.142 17735473.650 10 0 60545 5400.00000 0 15512886.504 5107398.975 19609656.307 10 0 60545 6300.00000 0 13108394.733 5831372.882 21103518.073 10 0 60545 7200.00000 0 10616227.859 6789000.470 22188029.947 10 0 60545 8100.00000 0 8104256.550 7972843.126 22842082.399 10 0 60545 9000.00000 0 5638879.083 9363204.667 23052897.601 10 0 60545 9900.00000 0 3282453.599 10928787.393 22816282.449 10 0 60545 10800.00000 0 1090909.037 12627849.703 22136717.270 10 0 60545 11700.00000 0 -888366.716 14409818.524 21027277.978 10 0 60545 12600.00000 0 -2618274.215 16217290.662 19509392.448 10 0 60545 13500.00000 0 -4073313.142 17988340.751 17612434.896 10 0 60545 14400.00000 0 -5240402.008 19659040.279 15373165.087 10 0 60545 15300.00000 0 -6119172.939 21166082.817 12835022.248 10 0 60545 16200.00000 0 -6721729.535 22449405.635 10047286.556 10 0 60545 17100.00000 0 -7071878.361 23454697.457 7064123.818 10 0 60545 18000.00000 0 -7203866.868 24135686.375 3943531.720 10 0 60545 18900.00000 0 -7160681.639 24456110.837 746208.167 10 0 60545 19800.00000 0 -6991979.652 24391289.694 -2465635.759 10 0 60545 20700.00000 0 -6751741.108 23929224.114 -5629494.353 10 0 60545 21600.00000 0 -6495744.364 23071184.005 -8683792.611 10 0 60545 22500.00000 0 -6278971.204 21831753.471 -11569093.425 10 0 60545 23400.00000 0 -6153053.704 20238332.928 -14229262.021 10 0 60545 24300.00000 0 -6163872.012 18330118.607 -16612564.137 10 0 60545 25200.00000 0 -6349405.819 16156602.350 -18672675.925 10 0 60545 26100.00000 0 -6737931.263 13775654.879 -20369585.589 10 0 60545 27000.00000 0 -7346640.053 11251273.126 -21670369.278 10 0 60545 27900.00000 0 -8180739.527 8651086.059 -22549826.478 10 0 60545 28800.00000 0 -9233071.775 6043723.325 -22990963.123 10 0 60545 29700.00000 0 -10484267.967 3496156.292 -22985313.809 10 0 60545 30600.00000 0 -11903431.448 1071121.813 -22533097.645 10 0 60545 31500.00000 0 -13449320.951 -1175264.797 -21643205.506 10 0 60545 32400.00000 0 -15071984.362 -3195609.341 -20333019.583 10 0 60545 33300.00000 0 -16714774.736 -4952964.939 -18628069.244 10 0 60545 34200.00000 0 -18316664.260 -6422114.574 -16561530.203 10 0 60545 35100.00000 0 -19814759.559 -7590358.354 -14173576.865 10 0 60545 36000.00000 0 -21146913.271 -8457774.509 -11510600.401 10 0 60545 36900.00000 0 -22254322.786 -9036945.043 -8624307.662 10 0 60545 37800.00000 0 -23084007.618 -9352159.315 -5570718.261 10 0 60545 38700.00000 0 -23591061.792 -9438130.467 -2409079.146 10 0 60545 39600.00000 0 -23740586.960 -9338279.932 799282.416 10 0 60545 40500.00000 0 -23509225.373 -9102663.270 3992145.277 10 0 60545 41400.00000 0 -22886228.303 -8785625.404 7107597.417 10 0 60545 42300.00000 0 -21874015.076 -8443284.650 10085232.275 10 0 60545 43200.00000 0 -20488199.121 -8130951.926 12867315.353 10 0 60545 44100.00000 0 -18757079.410 -7900594.075 15399898.838 10 0 60545 45000.00000 0 -16720618.039 -7798448.319 17633862.891 10 0 60545 45900.00000 0 -14428945.925 -7862888.429 19525863.920 10 0 60545 46800.00000 0 -11940458.054 -8122632.592 21039171.967 10 0 60545 47700.00000 0 -9319576.675 -8595368.705 22144381.419 10 0 60545 48600.00000 0 -6634274.400 -9286855.421 22819981.744 10 0 60545 49500.00000 0 -3953459.073 -10190537.507 23052777.427 10 0 60545 50400.00000 0 -1344327.926 -11287692.733 22838149.031 10 0 60545 51300.00000 0 1130200.089 -12548105.418 22180150.110 10 0 60545 52200.00000 0 3413868.112 -13931239.849 21091437.603 10 0 60545 53100.00000 0 5459182.963 -15387865.827 19593036.320 10 0 60545 54000.00000 0 7229147.697 -16862069.556 17713941.153 10 0 60545 54900.00000 0 8698553.402 -18293566.674 15490563.687 10 0 60545 55800.00000 0 9854776.649 -19620221.133 12966032.975 10 0 60545 56700.00000 0 10698049.555 -20780664.505 10189363.156 10 0 60545 57600.00000 0 11241191.472 -21716905.525 7214503.471 10 0 60545 58500.00000 0 11508813.970 -22376819.589 4099288.875 10 0 60545 59400.00000 0 11536033.185 -22716412.477 904311.719 10 0 60545 60300.00000 0 11366744.560 -22701761.867 -2308263.111 10 0 60545 61200.00000 0 11051533.814 -22310553.511 -5475915.761 10 0 60545 62100.00000 0 10645313.608 -21533146.161 -8536996.972 10 0 60545 63000.00000 0 10204787.135 -20373119.241 -11431936.766 10 0 60545 63900.00000 0 9785847.291 -18847279.379 -14104411.568 10 0 60545 64800.00000 0 9441022.712 -16985124.934 -16502446.205 10 0 60545 65700.00000 0 9217079.826 -14827790.691 -18579428.669 10 0 60545 66600.00000 0 9152883.131 -12426516.932 -20295017.539 10 0 60545 67500.00000 0 9277604.695 -9840707.078 -21615924.460 10 0 60545 68400.00000 0 9609358.739 -7135655.200 -22516556.751 10 0 60545 69300.00000 0 10154318.934 -4380038.346 -22979508.254 10 0 60545 70200.00000 0 10906355.466 -1643278.115 -22995889.602 10 0 60545 71100.00000 0 11847206.916 1007119.058 -22565492.322 10 0 60545 72000.00000 0 12947179.456 3508132.819 -21696784.332 10 0 60545 72900.00000 0 14166343.748 5803605.089 -20406737.624 10 0 60545 73800.00000 0 15456179.150 7846323.937 -18720491.961 10 0 60545 74700.00000 0 16761596.140 9599729.880 -16670861.454 10 0 60545 75600.00000 0 18023252.122 11039175.257 -14297693.781 10 0 60545 76500.00000 0 19180063.546 12152685.940 -11647094.454 10 0 60545 77400.00000 0 20171809.068 12941195.375 -8770531.161 10 0 60545 78300.00000 0 20941714.648 13418242.947 -5723835.417 10 0 60545 79200.00000 0 21438912.226 13609150.920 -2566120.750 10 0 60545 80100.00000 0 21620668.811 13549715.896 641361.708 10 0 60545 81000.00000 0 21454292.402 13284470.948 3836408.154 10 0 60545 81900.00000 0 20918634.564 12864592.429 6957064.722 10 0 60545 82800.00000 0 20005126.469 12345540.252 9942824.542 10 0 60545 83700.00000 0 18718304.514 11784531.380 12735796.265 10 0 60545 84600.00000 0 17075802.935 11237953.157 15281821.664 10 0 60545 85500.00000 0 15107813.058 10758825.416 17531520.978 10 0 60546 0.00000 0 12856030.995 10394418.211 19441246.044 10 0 60546 900.00000 0 10372135.443 10184125.164 20973924.201 10 0 60546 1800.00000 0 7715860.904 10157682.374 22099774.602 10 0 60546 2700.00000 0 4952741.213 10333807.240 22796886.872 10 0 60546 3600.00000 0 2151618.797 10719315.278 23051648.550 10 0 60546 4500.00000 0 -617979.287 11308752.434 22859014.152 10 0 60546 5400.00000 0 -3288490.635 12084559.200 22222610.287 10 0 60546 6300.00000 0 -5796883.186 13017760.743 21154674.263 10 0 60546 7200.00000 0 -8087031.606 14069155.227 19675826.697 10 0 60546 8100.00000 0 -10111806.269 15190951.618 17814681.594 10 0 60546 9000.00000 0 -11834788.382 16328789.260 15607300.424 10 0 60546 9900.00000 0 -13231540.052 17424055.114 13096499.813 10 0 60546 10800.00000 0 -14290376.479 18416401.641 10331025.389 10 0 60546 11700.00000 0 -15012608.161 19246359.392 7364607.199 10 0 60546 12600.00000 0 -15412243.218 19857933.818 4254914.747 10 0 60546 13500.00000 0 -15515162.754 20201076.015 1062432.056 10 0 60546 14400.00000 0 -15357804.572 20233922.093 -2150724.986 10 0 60546 15300.00000 0 -14985411.573 19924705.351 -5322025.155 10 0 60546 16200.00000 0 -14449919.811 19253259.208 -8389747.684 10 0 60546 17100.00000 0 -13807576.615 18212046.179 -11294192.376 10 0 60546 18000.00000 0 -13116390.736 16806668.389 -13978849.358 10 0 60546 18900.00000 0 -12433523.537 15055837.194 -16391504.836 10 0 60546 19800.00000 0 -11812732.575 12990802.554 -18485260.681 10 0 60546 20700.00000 0 -11301976.437 10654265.679 -20219447.599 10 0 60546 21600.00000 0 -10941282.526 8098820.337 -21560414.167 10 0 60546 22500.00000 0 -10760967.971 5384987.863 -22482176.663 10 0 60546 23400.00000 0 -10780288.599 2578927.913 -22966917.632 10 0 60546 24300.00000 0 -11006572.544 -250079.795 -23005324.206 10 0 60546 25200.00000 0 -11434874.452 -3032278.187 -22596760.434 10 0 60546 26100.00000 0 -12048164.230 -5700090.576 -21749271.032 10 0 60546 27000.00000 0 -12818041.798 -8190683.693 -20479417.180 10 0 60546 27900.00000 0 -13705947.277 -10448330.564 -18811948.061 10 0 60546 28800.00000 0 -14664815.321 -12426476.163 -16779314.889 10 0 60546 29700.00000 0 -15641103.799 -14089421.406 -14421037.025 10 0 60546 30600.00000 0 -16577111.378 -15413556.905 -11782932.492 10 0 60546 31500.00000 0 -17413486.563 -16388096.702 -8916227.800 10 0 60546 32400.00000 0 -18091822.697 -17015283.021 -5876564.208 10 0 60546 33300.00000 0 -18557229.835 -17310055.009 -2722919.543 10 0 60546 34200.00000 0 -18760775.364 -17299196.795 483533.600 10 0 60546 35100.00000 0 -18661690.621 -17020001.838 3680611.266 10 0 60546 36000.00000 0 -18229250.618 -16518510.638 6806320.353 10 0 60546 36900.00000 0 -17444247.625 -15847396.690 9800056.398 10 0 60546 37800.00000 0 -16299996.274 -15063590.046 12603773.943 10 0 60546 38700.00000 0 -14802827.435 -14225738.677 15163107.061 10 0 60546 39600.00000 0 -12972049.304 -13391614.461 17428418.668 10 0 60546 40500.00000 0 -10839376.335 -12615572.748 19355758.726 10 0 60546 41400.00000 0 -8447848.658 -11946172.095 20907713.295 10 0 60546 42300.00000 0 -5850285.696 -11424053.951 22054128.408 10 0 60546 43200.00000 0 -3107336.922 -11080171.214 22772695.204 10 0 60546 44100.00000 0 -285209.282 -10934439.977 23049385.230 10 0 60546 45000.00000 0 2546835.736 -10994871.284 22878727.529 10 0 60546 45900.00000 0 5319112.883 -11257219.711 22263921.964 10 0 60546 46800.00000 0 7964163.795 -11705164.159 21216786.100 10 0 60546 47700.00000 0 10419318.403 -12311014.049 19757535.948 10 0 60546 48600.00000 0 12629061.484 -13036912.141 17914403.924 10 0 60546 49500.00000 0 14547106.373 -13836484.236 15723100.386 10 0 60546 50400.00000 0 16138089.753 -14656867.091 13226128.216 10 0 60546 51300.00000 0 17378816.897 -15441029.553 10471962.877 10 0 60546 52200.00000 0 18259005.379 -16130289.224 7514113.193 10 0 60546 53100.00000 0 18781496.140 -16666918.164 4410080.845 10 0 60546 54000.00000 0 18961923.236 -16996726.975 1220238.831 10 0 60546 54900.00000 0 18827856.534 -17071517.071 -1993348.892 10 0 60546 55800.00000 0 18417454.031 -16851296.271 -5168142.834 10 0 60546 56700.00000 0 17777681.461 -16306162.668 -8242353.890 10 0 60546 57600.00000 0 16962175.330 -15417775.767 -11156154.787 10 0 60546 58500.00000 0 16028840.769 -14180351.483 -13852852.405 10 0 60546 59400.00000 0 15037286.786 -12601137.850 -16279997.228 10 0 60546 60300.00000 0 14046208.288 -10700350.475 -18390407.683 10 0 60546 61200.00000 0 13110826.239 -8510569.766 -20143089.009 10 0 60546 62100.00000 0 12280494.495 -6075624.703 -21504028.791 10 0 60546 63000.00000 0 11596574.407 -3449009.561 -22446853.973 10 0 60546 63900.00000 0 11090666.613 -691899.532 -22953337.086 10 0 60546 64800.00000 0 10783273.953 2129152.224 -23013742.606 10 0 60546 65700.00000 0 10682951.068 4944740.485 -22627007.516 10 0 60546 66600.00000 0 10785975.518 7685252.146 -21800753.304 10 0 60546 67500.00000 0 11076553.313 10283519.359 -20551129.907 10 0 60546 68400.00000 0 11527549.261 12677372.212 -18902495.116 10 0 60546 69300.00000 0 12101710.606 14811985.820 -16886936.062 10 0 60546 70200.00000 0 12753331.784 16641925.416 -14543642.233 10 0 60546 71100.00000 0 13430289.789 18132805.680 -11918142.258 10 0 60546 72000.00000 0 14076364.116 19262496.575 -9061419.213 10 0 60546 72900.00000 0 14633743.385 20021826.798 -6028921.496 10 0 60546 73800.00000 0 15045613.053 20414757.007 -2879488.339 10 0 60546 74700.00000 0 15258715.068 20458016.818 325789.315 10 0 60546 75600.00000 0 15225771.581 20180221.950 3524750.629 10 0 60546 76500.00000 0 14907670.539 19620509.674 6655366.573 10 0 60546 77400.00000 0 14275320.894 18826750.521 9656938.346 10 0 60546 78300.00000 0 13311099.002 17853411.935 12471269.499 10 0 60546 79200.00000 0 12009824.850 16759163.858 15043789.316 10 0 60546 80100.00000 0 10379226.308 15604326.855 17324606.038 10 0 60546 81000.00000 0 8439870.899 14448269.778 19269469.943 10 0 60546 81900.00000 0 6224566.669 13346865.914 20840628.153 10 0 60546 82800.00000 0 3777255.719 12350113.987 22007555.022 10 0 60546 83700.00000 0 1151444.942 11500023.392 22747544.417 10 0 60546 84600.00000 0 -1591762.430 10828852.016 23046152.655 10 0 60546 85500.00000 0 -4385954.221 10357770.359 22897483.584 10 0 60547 0.00000 0 -7161921.978 10096007.940 22304310.169 10 0 60547 900.00000 0 -9850297.426 10040517.894 21278029.369 10 0 60547 1800.00000 0 -12384200.662 10176174.494 19838451.357 10 0 60547 2700.00000 0 -14701795.832 10476495.342 18013425.207 10 0 60547 3600.00000 0 -16748644.881 10904858.818 15838307.988 10 0 60547 4500.00000 0 -18479763.056 11416165.878 13355286.330 10 0 60547 5400.00000 0 -19861290.259 11958876.563 10612562.773 10 0 60547 6300.00000 0 -20871708.285 12477335.423 7663422.034 10 0 60547 7200.00000 0 -21502552.839 12914287.434 4565195.026 10 0 60547 8100.00000 0 -21758590.369 13213477.512 1378140.798 10 0 60547 9000.00000 0 -21657452.363 13322222.766 -1835731.495 10 0 60547 9900.00000 0 -21228742.765 13193847.484 -5013876.894 10 0 60547 10800.00000 0 -20512656.663 12789876.456 -8094440.643 10 0 60547 11700.00000 0 -19558169.229 12081892.390 -11017470.965 10 0 60547 12600.00000 0 -18420872.305 11052977.478 -13726093.895 10 0 60547 13500.00000 0 -17160550.893 9698676.963 -16167626.385 10 0 60547 14400.00000 0 -15838602.797 8027442.885 -18294605.325 10 0 60547 15300.00000 0 -14515411.058 6060538.476 -20065712.071 10 0 60547 16200.00000 0 -13247780.480 3831406.446 -21446574.436 10 0 60547 17100.00000 0 -12086546.407 1384527.139 -22410430.845 10 0 60547 18000.00000 0 -11074456.255 -1226186.069 -22938644.248 10 0 60547 18900.00000 0 -10244412.330 -3939387.457 -23021056.510 10 0 60547 19800.00000 0 -9618148.944 -6688612.666 -22656177.210 10 0 60547 20700.00000 0 -9205398.306 -9404809.459 -21851203.928 10 0 60547 21600.00000 0 -9003578.984 -12018980.767 -20621874.349 10 0 60547 22500.00000 0 -8998018.697 -14464830.776 -18992153.570 10 0 60547 23400.00000 0 -9162700.879 -16681304.829 -16993763.087 10 0 60547 24300.00000 0 -9461502.461 -18614918.439 -14665560.781 10 0 60547 25200.00000 0 -9849869.917 -20221779.596 -12052784.016 10 0 60547 26100.00000 0 -10276862.258 -21469221.214 -9206170.461 10 0 60547 27000.00000 0 -10687474.419 -22336976.927 -6180973.661 10 0 60547 27900.00000 0 -11025142.765 -22817852.334 -3035892.223 10 0 60547 28800.00000 0 -11234326.858 -22917864.756 168066.630 10 0 60547 29700.00000 0 -11263058.460 -22655846.796 3368767.281 10 0 60547 30600.00000 0 -11065350.122 -22062531.120 6504146.942 10 0 60547 31500.00000 0 -10603361.597 -21179155.635 9513414.728 10 0 60547 32400.00000 0 -9849232.591 -20055648.102 12338225.502 10 0 60547 33300.00000 0 -8786504.118 -18748466.568 14923806.103 10 0 60547 34200.00000 0 -7411068.061 -17318186.217 17220012.389 10 0 60547 35100.00000 0 -5731604.098 -15826933.690 19182297.140 10 0 60547 36000.00000 0 -3769484.434 -14335775.979 20772570.520 10 0 60547 36900.00000 0 -1558148.884 -12902172.851 21959936.928 10 0 60547 37800.00000 0 858025.250 -11577598.886 22721294.359 10 0 60547 38700.00000 0 3425313.206 -10405434.141 23041784.952 10 0 60547 39600.00000 0 6082628.248 -9419211.245 22915088.064 10 0 60547 40500.00000 0 8763821.798 -8641291.972 22343549.978 10 0 60547 41400.00000 0 11400204.172 -8082028.511 21338147.295 10 0 60547 42300.00000 0 13923182.453 -7739444.576 19918284.008 10 0 60547 43200.00000 0 16266906.818 -7599449.868 18111425.282 10 0 60547 44100.00000 0 18370815.887 -7636579.111 15952574.028 10 0 60547 45000.00000 0 20181975.333 -7815224.796 13483599.437 10 0 60547 45900.00000 0 21657112.201 -8091311.906 10752429.594 10 0 60547 46800.00000 0 22764259.725 -8414343.978 7812123.217 10 0 60547 47700.00000 0 23483943.422 -8729733.835 4719838.189 10 0 60547 48600.00000 0 23809858.402 -8981319.930 1535717.011 10 0 60547 49500.00000 0 23749009.182 -9113960.978 -1678288.850 10 0 60547 50400.00000 0 23321306.089 -9076097.909 -4859632.037 10 0 60547 51300.00000 0 22558635.431 -8822173.345 -7946395.306 10 0 60547 52200.00000 0 21503443.055 -8314804.729 -10878505.527 10 0 60547 53100.00000 0 20206891.677 -7526617.669 -13598910.928 10 0 60547 54000.00000 0 18726670.490 -6441660.656 -16054697.780 10 0 60547 54900.00000 0 17124550.186 -5056340.119 -18198124.067 10 0 60547 55800.00000 0 15463787.178 -3379835.403 -19987549.621 10 0 60547 56700.00000 0 13806486.846 -1433975.303 -21388244.546 10 0 60547 57600.00000 0 12211036.970 747419.313 -22373060.492 10 0 60547 58500.00000 0 10729719.099 3119699.781 -22922952.205 10 0 60547 59400.00000 0 9406597.690 5629012.522 -23027339.933 10 0 60547 60300.00000 0 8275774.708 8214313.175 -22684306.441 10 0 60547 61200.00000 0 7360081.725 10809688.353 -21900625.571 10 0 60547 62100.00000 0 6670262.983 13346888.753 -20691622.504 10 0 60547 63000.00000 0 6204682.091 15757968.744 -19080868.984 10 0 60547 63900.00000 0 5949563.140 17977923.154 -17099719.806 10 0 60547 64800.00000 0 5879754.575 19947212.273 -14786699.779 10 0 60547 65700.00000 0 5959982.392 21614070.781 -12186753.144 10 0 60547 66600.00000 0 6146538.786 22936505.203 -9350369.949 10 0 60547 67500.00000 0 6389334.254 23883897.650 -6332606.297 10 0 60547 68400.00000 0 6634226.006 24438149.791 -3192017.294 10 0 60547 69300.00000 0 6825524.017 24594320.197 10476.679 10 0 60547 70200.00000 0 6908568.706 24360729.272 3212768.508 10 0 60547 71100.00000 0 6832271.209 23758528.089 6352765.010 10 0 60547 72000.00000 0 6551508.908 22820749.892 9369586.540 10 0 60547 72900.00000 0 6029274.941 21590884.361 12204742.510 10 0 60547 73800.00000 0 5238490.741 20121034.640 14803260.352 10 0 60547 74700.00000 0 4163404.786 18469734.290 17114746.352 10 0 60547 75600.00000 0 2800517.899 16699515.319 19094358.303 10 0 60547 76500.00000 0 1158995.232 14874328.640 20703671.603 10 0 60547 77400.00000 0 -739453.691 13056924.309 21911422.503 10 0 60547 78300.00000 0 -2861223.431 11306300.344 22694114.513 10 0 60547 79200.00000 0 -5161964.302 9675326.023 23036476.528 10 0 60547 80100.00000 0 -7588191.030 8208638.299 22931763.820 10 0 60547 81000.00000 0 -10079283.267 6940898.600 22381895.922 10 0 60547 81900.00000 0 -12569796.385 5895482.415 21397428.258 10 0 60547 82800.00000 0 -14991987.860 5083656.189 19997357.388 10 0 60547 83700.00000 0 -17278455.244 4504275.767 18208762.726 10 0 60547 84600.00000 0 -19364776.666 4144018.998 16066290.692 10 0 60547 85500.00000 0 -21192044.162 3978142.703 13611490.281 99